Home   Weather   Southampton   Past weeks

Flag for United Kingdom Past Weather in Southampton, England, United Kingdom — Yesterday and Last 2 Weeks

Now
57 °F

Scattered clouds.


Feels Like: 57 °F
Forecast: 53 / 72 °F
Wind: No wind

Location: Southampton / Weather Centre

Current Time: Aug 31, 2016 at 9:12:29 AM

Latest Report: Aug 31, 2016 at 8:20 AM


Visibility: 6 mi

Pressure: 30.12 "Hg

Humidity: 94%

Dew Point: 55 °F

Location of SouthamptonLocation

Past Weather in Southampton — Graph

°F

Southampton Temperature Yesterday

Maximum temperature yesterday: 73 °F (at 1:20 PM)
Minimum temperature yesterday: 46 °F (at 5:50 AM)
Average temperature yesterday: 64 °F

High & Low Weather Summary for the Past Weeks

 TemperatureHumidityPressure
High84 °F (Aug 24, 3:20 PM)100% (Aug 17, 5:50 AM)30.30 "Hg (Aug 17, 5:50 AM)
Low46 °F (Aug 30, 5:50 AM)36% (Aug 26, 3:20 PM)29.65 "Hg (Aug 19, 3:50 PM)
Average66 °F71%30.01 "Hg
* Reported Aug 16 7:20 AM — Aug 31 7:50 AM, Southampton, Weather by CustomWeather, © 2016

Note: Actual official high and low records may vary slightly from our data, if they occured in-between our weather recording intervals... More about our weather records

Advertising

Southampton Weather History for the Previous 24 Hours

Scroll right to see more
 ConditionsComfort  
Time TempWeatherWind HumidityBarometerVisibility
7:50 AM
Wed, Aug 31
54 °FClear.No wind94%30.12 "Hg4 mi
7:20 AM50 °FFog.1 mph100%30.12 "Hg5 mi
6:50 AM48 °FCool.No wind94%30.12 "Hg4 mi
6:20 AM46 °FCool.No wind100%30.12 "Hg4 mi
5:50 AM48 °FLight fog.No wind94%30.12 "Hg4 mi
10:20 PM
Tue, Aug 30
54 °FFog.1 mph94%30.18 "HgN/A
9:50 PM55 °FClear.No wind88%30.18 "Hg10 mi
9:20 PM55 °FClear.No wind88%30.18 "Hg10 mi
8:50 PM59 °FSunny.2 mph77%30.18 "Hg10 mi
8:20 PM63 °FSunny.3 mph64%30.18 "Hg10 mi
7:50 PM64 °FSunny.3 mph60%30.18 "Hg10 mi
7:20 PM66 °FPassing clouds.5 mph56%30.18 "HgN/A
6:50 PM68 °FPassing clouds.6 mph56%30.18 "HgN/A
6:20 PM70 °FPassing clouds.6 mph53%30.18 "HgN/A
5:50 PM72 °FPassing clouds.6 mph47%30.18 "HgN/A
5:20 PM72 °FPassing clouds.8 mph50%30.21 "HgN/A
4:50 PM72 °FPassing clouds.7 mph50%30.21 "HgN/A
4:20 PM73 °FPassing clouds.8 mph50%30.21 "HgN/A
3:50 PM73 °FPassing clouds.7 mph47%30.21 "HgN/A
3:20 PM73 °FPassing clouds.6 mph47%30.21 "HgN/A
2:50 PM73 °FPassing clouds.7 mph50%30.24 "HgN/A
2:20 PM73 °FPassing clouds.9 mph50%30.24 "HgN/A
1:50 PM73 °FPassing clouds.6 mph47%30.24 "HgN/A
1:20 PM73 °FPassing clouds.6 mph44%30.27 "HgN/A
12:50 PM72 °FPassing clouds.7 mph47%30.27 "HgN/A
12:20 PM72 °FPassing clouds.6 mph47%30.27 "HgN/A
11:50 AM72 °FPassing clouds.6 mph47%30.27 "HgN/A
11:20 AM72 °FPassing clouds.5 mph50%30.27 "HgN/A
10:50 AM70 °FPassing clouds.2 mph53%30.27 "HgN/A
10:20 AM68 °FSunny.1 mph60%30.30 "Hg10 mi
9:50 AM66 °FSunny.1 mph68%30.30 "Hg10 mi
9:20 AM63 °FSunny.1 mph73%30.27 "Hg10 mi
Weather by CustomWeather, © 2016

See weather overviewHow to use our weather pages